Location: Unspecified
(0.0000°N, 0.0000°E)
Time: 09:50:19
(UTC+00:00)

ISS - Visible Passes

Search period start: 05 March 2026 00:00
Search period end: 15 March 2026 00:00
Orbit: 416 x 427 km, 51.6° (Epoch: 4 March)

Date Brightness Start Highest point End Pass type
(mag) Time Alt. Az. Time Alt. Az. Time Alt. Az.
5 Mar -0.9 20:02:07 10° W 20:04:04 15° NW 20:04:08 15° NW visible
6 Mar -1.9 19:14:07 10° WSW 19:17:09 30° NW 19:20:12 10° N visible
9 Mar -1.7 05:16:53 10° N 05:19:47 28° NE 05:22:41 10° ESE visible
9 Mar -0.7 18:31:12 10° W 18:32:59 14° NW 18:34:45 10° NNW visible
10 Mar -0.8 04:31:09 10° NNE 04:32:49 13° NE 04:34:27 10° E visible
11 Mar -3.4 05:20:22 18° WNW 05:22:27 42° SW 05:25:39 10° SSE visible
12 Mar -2.7 04:36:28 41° SE 04:36:28 41° SE 04:38:47 10° SE visible
